Hourly Data Report for January 22, 2022

VICTORIA UNIVERSITY CS
BRITISH COLUMBIA
Current Station Operator: ECCC - MSC

48°27'25.200" N
123°18'16.600" W
60.10 m
1018598
71783
WYJ

Download Data

Hourly Data (January 2022)
Hourly Data Report for January 22, 2022
TIME
LST
Temp Definition
°C
Dew Point Definition
°C
Rel Hum Definition
%
Precip. Amount Definition
mm

Wind Dir Definition
10's deg

Wind Spd Definition
km/h
Visibility Definition
km
Stn Press Definition
kPa
Hmdx Definition


Wind Chill Definition


Weather Definition


00:00 5.1 5.1 100 0.0 36 4   102.95     LegendNANA
01:00 5.2 5.2 100 0.0 1 6   102.94     LegendNANA
02:00 4.9 4.8 99 0.0 35 8   102.95     LegendNANA
03:00 4.3 4.3 100 0.0 35 6   102.92     LegendNANA
04:00 4.2 4.0 98 0.0 35 7   102.90     LegendNANA
05:00 4.2 3.7 97 0.0 33 4   102.89     LegendNANA
06:00 4.0 3.1 94 0.0 34 5   102.83     LegendNANA
07:00 4.1 3.2 94 0.0 36 5   102.79     LegendNANA
08:00 4.3 3.8 97 0.0 36 7   102.79     LegendNANA
09:00 4.7 4.3 97 0.0 36 6   102.83     LegendNANA
10:00 5.8 4.2 89 0.0 35 9   102.82     LegendNANA
11:00 6.8 4.6 86 0.0 35 10   102.80     LegendNANA
12:00 7.0 4.1 82 0.0 1 12   102.77     LegendNANA
13:00 6.9 3.7 80 0.0 35 10   102.73     LegendNANA
14:00 6.8 3.6 80 0.0 1 9   102.68     LegendNANA
15:00 6.3 3.8 84 0.0 2 8   102.66     LegendNANA
16:00 6.2 4.0 86 0.0 36 7   102.61     LegendNANA
17:00 5.3 4.1 92 0.0 2 3   102.58     LegendNANA
18:00 4.9 4.8 99 0.0 36 8   102.55     LegendNANA
19:00 4.6 3.5 92 0.0 36 8   102.52     LegendNANA
20:00 4.5 4.5 100 0.0 36 9   102.49     LegendNANA
21:00 4.3 4.3 100 0.0 36 7   102.47     LegendNANA
22:00 4.1 4.0 100 0.0 36 7   102.45     LegendNANA
23:00 3.7 3.7 100 0.0 35 9   102.45     LegendNANA

Notes on Data Quality.

Legend

  • E = Estimated
  • M = Missing
  • NA = Not Available*
  • [empty] = Indicates an unobserved value
Date modified: